Showing default

ION SCV-014, 62630

Orbit data source: Space-Track

ION SCV-014, 62630 is a payload satellite owned by D-ORBIT (IT) in SSO that was launched on Tue, 14 Jan 2025 UTC via an FALCON 9 launch vehicle from the Air Force Western Test Range (AFWTR). Payload-class satellites include a variety of spacecraft equipped with specific instruments for various scientific and technological missions. These include communications satellites like Starlink; space stations such as the ISS; scientific satellites like the Hubble; Earth observation satellites from companies like Planet Labs, Umbra, and HawkEye 360; GPS; miniature CubeSats for education and research; and military/defense satellites.

Loading next visibility...
Identifier
62630, 2025-009X
Orbit
SSO
Country
Flag of ITIT
Related business
Manufacturer
D-ORBIT
Mission
Operational Commercial Technology
Bus & Motor
ION-SC, PM200
Mass
220 kg wet, 150 kg dry
Launch date (UTC)
2025-01-14 (1 year ago)
Launch vehicle
FALCON 9
Launch site
Air Force Western Test Range (AFWTR)
Object type
Payload
Rocket body
Debris
Shape & HBR
Box, 1.1 m
Radar Cross Section
0.240 m², Large (>1 m²)

Expand to show TLE details & history
Last TLE update: 20 hours ago

TLE from 20 hours ago
0 ION SCV-014
1 62630U 25009X   26067.78687905  .00002128  00000-0  15464-3 0  9990
2 62630  97.4926 143.9603 0006485 114.8105 245.3797 15.04881489 62884
Epoch: 2026-03-08T18:53Z
TLE epoch observation values (Epoch: 2026-03-08T18:53:06.349Z)
Latitude
-0.00003°
Longitude
54.19468°
Altitude
556.812 km
Speed
7.582 km/s
True Right ascension
09h 35m 50s
True Declination
0° 00' 00"
Sunlit
Object was in full shadow at epoch
Visualization orbit readout
Latitude
Unknown
Longitude
Unknown
Altitude
Unknown
Speed
Unknown
Apparent Right ascension
Unknown
Apparent Declination
Unknown
Sunlit
N/A
Visualization observer readout
Local Sidereal Time
19:06:25
Azimuth
Unknown
Elevation
Unknown
Doppler factor
Unknown
Orbital elements
Apogee altitude
553.351 km
Perigee altitude
544.367 km
Semi-major axis
6,926.996 km
Eccentricity
0.00065
Inclination
97.4926°
RAAN
143.9603°
Arg. of periapsis
114.8105°
True anomaly
245.31217°
Mean anomaly
245.3797°
Eccentric anomaly
245.34593°
Mean motion
3.76466 °/min
Orbital period
95.63 mins
BSTAR
0.00015464
Loading maneuver chart data...
Computing Atmospheric mass density...
Loading historical data...
Loading historical data...
Loading historical data...
Loading historical data...
Loading historical data...
Loading historical data...
Loading historical data...

Documentation

Showing up to 5 results
|